[[{"header":{"parameterUnit":"m.s-1","parameterCategory":1,"la1":30.2991,"la2":30.254,"lo1":-89.0895,"lo2":-89.0444,"dy":0.0017,"dx":0.0017,"nx":28,"ny":28,"refTime":"2023-10-13T03:00:00:Z","depth":0,"parameterNumber":2,"parameterNumberName":"U-component_of_WINDS"},"data":[0,0,0,0,0,0,0,0,0,0,0,0,0,0,0,0,0,0,0,0,0,0,0,0,0,0,0,0,0,0,0,0,0,0,0,0,0,0,0,0,0,0,0,0,0,0,0,0,0,0,0,0,0,0,0,0,0,0,3.3464,3.3465,0,3.3497,3.3497,3.3497,3.3446,3.3444,3.3443,3.3441,3.3472,3.3475,3.3477,0,0,0,0,0,0,0,0,0,0,0,0,0,3.3359,3.3361,3.3464,3.3465,3.3465,3.3497,3.3497,3.3497,3.3446,3.3444,3.3442,3.344,3.3472,3.3475,3.3478,0,0,0,0,0,0,0,0,0,0,0,0,0,3.3399,3.3362,3.3464,3.3444,3.3442,3.3496,3.3497,3.3497,3.3447,3.3444,3.3442,3.3439,3.3471,3.3474,3.3478,3.3554,0,0,3.3489,3.3491,0,0,0,0,0,0,0,0,3.3397,3.3403,3.3446,3.3445,3.3443,3.3465,3.3471,3.3516,3.3448,3.3445,3.3441,3.3438,3.3472,3.3475,3.3487,3.3555,3.3557,3.349,3.3492,3.3494,3.3495,0,0,0,0,0,0,0,3.3394,3.3402,3.3477,3.3447,3.3445,3.3433,3.3436,3.348,3.3473,3.3445,3.3441,3.3446,3.3471,3.3484,3.3487,3.3557,3.349,3.3493,3.3495,3.3497,3.3691,3.3694,0,0,0,0,0,0,3.3394,3.34,3.3476,3.3478,3.3413,3.3437,3.344,3.346,3.3472,3.3471,3.3448,3.3443,3.3479,3.3483,3.3488,3.3579,3.3493,3.3497,3.3499,3.3688,3.3691,3.3695,0,0,0,0,0,0,3.3392,3.3401,3.3475,3.3438,3.3446,3.3441,3.3465,3.3463,3.3475,3.3475,3.3473,3.3463,3.3477,3.3483,3.3538,3.3579,3.3499,3.3502,3.3684,3.3689,3.3693,3.376,0,0,0,0,0,0,3.3389,3.3401,3.343,3.3439,3.3448,3.3524,3.3467,3.3465,3.3482,3.3476,3.3488,3.3487,3.3475,3.3533,3.3542,3.3583,3.3505,3.3681,3.3687,3.3692,3.3754,3.3766,3.3777,0,0,0,0,0,3.3386,3.3446,3.3431,3.3441,3.3484,3.3527,3.3532,3.3517,3.3486,3.3514,3.3514,3.3487,3.3574,3.3539,3.3549,3.3591,3.3678,3.3685,3.3691,3.3749,3.3764,3.3776,0,0,0,0,0,0,3.3441,3.3447,3.343,3.3496,3.3511,3.3518,3.3554,3.3533,3.3557,3.3551,3.3531,3.3534,3.3594,3.3598,3.356,3.3666,3.3621,3.3629,3.3661,3.3675,3.3686,3.3684,3.3508,0,0,0,0,0,3.3461,3.3495,3.3499,3.3556,3.3565,3.3558,3.3576,3.3564,3.3579,3.3585,3.3588,3.3604,3.3635,3.3655,3.3683,3.3755,3.3757,3.3789,3.38,3.3809,3.3817,3.3857,3.3871,3.3716,3.3716,3.3716,0,0,3.3502,3.351,3.3532,3.3568,3.3578,3.3614,3.3564,3.3604,3.3631,3.3591,3.3643,3.3647,3.3663,3.3727,3.3756,3.3733,3.3861,3.3818,3.3825,3.3828,3.3865,3.388,3.3893,3.3721,3.372,3.3719,0,0,3.3595,3.3605,3.3654,3.3666,3.3683,3.3679,3.3691,3.3702,3.3703,3.3756,3.3727,3.3759,3.3812,3.3825,3.3838,3.394,3.3916,3.395,3.4008,3.4047,3.4059,3.407,3.4107,3.412,3.3957,3.3958,3.3958,0,3.3644,3.3698,3.3682,3.3725,3.3742,3.3709,3.3759,3.3771,3.3797,3.3809,3.3783,3.3851,3.3859,3.3927,3.3952,3.3964,3.3977,3.3948,3.4058,3.4069,3.4079,3.4114,3.4128,3.3962,3.3961,3.3961,3.396,0,3.3757,3.3795,3.3833,3.386,3.3881,3.3927,3.3919,3.3943,3.3929,3.3928,3.3983,3.3992,3.4023,3.4038,3.4024,3.4104,3.409,3.4062,3.4015,3.4098,3.4131,3.4144,3.3967,3.3966,3.3965,3.3964,0,0,3.3885,3.3904,3.3918,3.3931,3.3948,3.3977,3.4023,3.4053,3.4074,3.4093,3.4131,3.4179,3.4153,3.4169,3.4157,3.4191,3.4273,3.4159,3.4159,3.418,3.4362,3.4383,3.4399,3.4257,3.426,3.4262,3.4361,0,3.3978,3.4057,3.4046,3.4122,3.4158,3.4128,3.4168,3.4183,3.4184,3.4214,3.4214,3.4249,3.4212,3.4222,3.4254,3.4256,3.4309,3.4249,3.4293,3.4295,3.429,3.4416,3.4438,3.4531,3.4374,3.4376,3.4378,0,3.4098,3.4123,3.4203,3.4217,3.4231,3.4267,3.4296,3.4325,3.4342,3.434,3.4359,3.4342,3.4388,3.4342,3.4406,3.4365,3.4383,3.4386,3.439,3.4393,3.4341,3.4423,3.456,3.4575,3.4397,3.4396,3.4394,0,3.4183,3.4237,3.4292,3.4304,3.4321,3.4348,3.4356,3.4371,3.4391,3.4416,3.4428,3.4458,3.4474,3.4498,3.4489,3.4456,3.4555,3.4508,3.4555,3.4556,3.4577,3.4576,3.4719,3.4589,3.4588,3.4588,3.4588,0,3.4289,3.4339,3.4331,3.4365,3.4421,3.4408,3.4464,3.4469,3.4483,3.4518,3.4494,3.4527,3.4514,3.4546,3.454,3.4595,3.4602,3.4602,3.46,3.4604,3.4604,3.4615,3.4608,3.4592,3.4591,3.459,3.459,0,3.4394,3.439,3.4449,3.4461,3.4466,3.4507,3.4517,3.455,3.4549,3.4594,3.4604,3.4603,3.464,3.4634,3.4675,3.4671,3.474,3.4729,3.4734,3.4731,3.478,3.4775,3.4935,3.4956,3.4812,3.4813,3.4814,0,3.4461,3.4499,3.4517,3.4539,3.455,3.4585,3.4606,3.4595,3.4618,3.4642,3.4672,3.4707,3.4735,3.4796,3.4799,3.4831,3.4821,3.4875,3.4826,3.483,3.4823,3.4821,3.4825,3.4885,3.4886,3.4888,3.4889,0,3.4582,3.4579,3.4609,3.4641,3.4667,3.469,3.4712,3.4731,3.4722,3.4749,3.4788,3.4809,3.4853,3.4888,3.4919,3.4927,3.4907,3.4905,3.4917,3.4922,3.4924,3.4924,3.4761,3.4901,3.49,3.4899,3.4898,3.4898,3.467,3.4703,3.4721,3.4757,3.4773,3.4794,3.4825,3.483,3.4862,3.4896,3.4888,3.4932,3.495,3.4989,3.5002,3.5036,3.5016,3.5034,3.5039,3.5044,3.505,3.4919,3.5041,3.5041,3.5041,3.5041,3.504,0,3.479,3.48,3.4834,3.4865,3.4894,3.4874,3.4897,3.4922,3.4961,3.498,3.5009,3.5054,3.5089,3.5096,3.513,3.5156,3.5148,3.5166,3.5163,3.5166,3.5065,3.5051,3.5172,3.5172,3.5172,3.5172,3.5172,3.5172,3.4855,3.4911,3.4911,3.4975,3.4985,3.5028,3.5044,3.5063,3.5079,3.513,3.516,3.5165,3.5179,3.5214,3.5246,3.5247,3.5261,3.5282,3.528,3.5186,3.5173,3.516,3.5147,3.5285,3.5286,3.5378,3.5379,3.5379]},{"header":{"parameterUnit":"m.s-1","parameterCategory":1,"la1":30.2991,"la2":30.254,"lo1":-89.0895,"lo2":-89.0444,"dy":0.0017,"dx":0.0017,"nx":28,"ny":28,"refTime":"2023-10-13T03:00:00:Z","depth":0,"parameterNumber":3,"parameterNumberName":"V-component_of_WINDS"},"data":[0,0,0,0,0,0,0,0,0,0,0,0,0,0,0,0,0,0,0,0,0,0,0,0,0,0,0,0,0,0,0,0,0,0,0,0,0,0,0,0,0,0,0,0,0,0,0,0,0,0,0,0,0,0,0,0,0,0,-7.274,-7.2741,0,-7.2914,-7.2916,-7.2918,-7.286,-7.2856,-7.2852,-7.2849,-7.3023,-7.3031,-7.3039,0,0,0,0,0,0,0,0,0,0,0,0,0,-7.2352,-7.236,-7.2739,-7.2742,-7.2744,-7.2914,-7.2916,-7.2919,-7.286,-7.2856,-7.2851,-7.2847,-7.302,-7.303,-7.304,0,0,0,0,0,0,0,0,0,0,0,0,0,-7.2523,-7.2362,-7.2739,-7.2735,-7.2737,-7.2914,-7.2916,-7.2919,-7.2861,-7.2856,-7.285,-7.2845,-7.3017,-7.3029,-7.3041,-7.323,0,0,-7.3078,-7.3084,0,0,0,0,0,0,0,0,-7.2513,-7.2537,-7.2734,-7.2736,-7.2738,-7.286,-7.2844,-7.3024,-7.2863,-7.2814,-7.2849,-7.2842,-7.2973,-7.2988,-7.3033,-7.3239,-7.3246,-7.308,-7.3087,-7.3092,-7.3096,0,0,0,0,0,0,0,-7.2502,-7.2529,-7.2808,-7.2737,-7.2739,-7.2724,-7.2742,-7.2878,-7.2923,-7.2818,-7.2814,-7.2836,-7.2973,-7.3022,-7.3037,-7.3249,-7.3079,-7.309,-7.3098,-7.3102,-7.362,-7.3626,0,0,0,0,0,0,-7.2489,-7.252,-7.2803,-7.2814,-7.261,-7.2736,-7.2756,-7.2826,-7.2921,-7.2931,-7.284,-7.2832,-7.3004,-7.3023,-7.3043,-7.3272,-7.3092,-7.3104,-7.3111,-7.3613,-7.3621,-7.3628,0,0,0,0,0,0,-7.2481,-7.2515,-7.2796,-7.2666,-7.2701,-7.2748,-7.2828,-7.2833,-7.2882,-7.2939,-7.2946,-7.2882,-7.3,-7.3026,-7.3185,-7.3278,-7.3109,-7.312,-7.3606,-7.3616,-7.3624,-7.3732,0,0,0,0,0,0,-7.247,-7.2512,-7.2585,-7.2668,-7.2708,-7.2936,-7.2834,-7.284,-7.2903,-7.2895,-7.298,-7.2988,-7.2997,-7.3167,-7.3197,-7.3291,-7.313,-7.3598,-7.361,-7.3621,-7.372,-7.3744,-7.3764,0,0,0,0,0,-7.2457,-7.2607,-7.2589,-7.2624,-7.28,-7.2942,-7.2964,-7.2973,-7.2911,-7.2985,-7.3022,-7.2986,-7.3263,-7.3184,-7.3217,-7.3317,-7.3592,-7.3607,-7.3621,-7.371,-7.3739,-7.3764,0,0,0,0,0,0,-7.2532,-7.2618,-7.2599,-7.2781,-7.2855,-7.2932,-7.3024,-7.3003,-7.3094,-7.3082,-7.3087,-7.3107,-7.3271,-7.3309,-7.322,-7.3506,-7.3418,-7.344,-7.3475,-7.3503,-7.3524,-7.3512,-7.314,0,0,0,0,0,-7.257,-7.2679,-7.2748,-7.2902,-7.294,-7.2976,-7.3038,-7.3039,-7.3114,-7.3145,-7.3193,-7.3267,-7.3371,-7.3439,-7.3537,-7.3726,-7.3744,-7.381,-7.3832,-7.385,-7.3869,-7.3973,-7.4004,-7.3675,-7.3675,-7.3675,0,0,-7.265,-7.271,-7.2778,-7.2919,-7.2976,-7.3088,-7.3003,-7.3124,-7.3207,-7.3162,-7.3317,-7.3355,-7.3438,-7.3613,-7.3693,-7.365,-7.3964,-7.3868,-7.3882,-7.3891,-7.3991,-7.4022,-7.4049,-7.3685,-7.3683,-7.3682,0,0,-7.2852,-7.2908,-7.3044,-7.3104,-7.3192,-7.3215,-7.3248,-7.3329,-7.3354,-7.3509,-7.3478,-7.3576,-7.3754,-7.3815,-7.3869,-7.4097,-7.4068,-7.4129,-7.4244,-7.4345,-7.4371,-7.4394,-7.4476,-7.4506,-7.4147,-7.4148,-7.4148,0,-7.2939,-7.3108,-7.3116,-7.3241,-7.3304,-7.3271,-7.3409,-7.3465,-7.3581,-7.3625,-7.3576,-7.3801,-7.3854,-7.4044,-7.41,-7.4144,-7.4182,-7.4119,-7.4367,-7.439,-7.4412,-7.449,-7.4521,-7.4155,-7.4154,-7.4153,-7.4153,0,-7.3211,-7.3329,-7.3427,-7.3542,-7.3616,-7.3747,-7.3774,-7.3848,-7.3843,-7.3871,-7.403,-7.4093,-7.4205,-7.425,-7.4244,-7.444,-7.4411,-7.4365,-7.4276,-7.445,-7.4524,-7.4554,-7.4165,-7.4162,-7.416,-7.4158,0,0,-7.3464,-7.3584,-7.362,-7.3673,-7.3769,-7.3859,-7.3989,-7.41,-7.4163,-7.4244,-7.4353,-7.4506,-7.4465,-7.4526,-7.4528,-7.4617,-7.4795,-7.456,-7.4562,-7.4602,-7.5015,-7.505,-7.5084,-7.4776,-7.4782,-7.4786,-7.5008,0,-7.3675,-7.3904,-7.3916,-7.4124,-7.4233,-7.4204,-7.4317,-7.4388,-7.4418,-7.4515,-7.4547,-7.4656,-7.4593,-7.463,-7.4717,-7.4755,-7.4878,-7.4739,-7.4877,-7.4882,-7.4858,-7.5123,-7.5159,-7.5366,-7.5037,-7.5042,-7.5045,0,-7.3951,-7.4044,-7.4263,-7.4346,-7.4392,-7.4493,-7.4597,-7.4689,-7.4769,-7.4785,-7.4856,-7.4845,-7.4977,-7.4885,-7.5067,-7.4972,-7.5029,-7.5057,-7.5065,-7.5078,-7.4974,-7.5144,-7.5431,-7.5463,-7.5091,-7.5087,-7.5084,0,-7.4115,-7.4294,-7.4449,-7.4495,-7.4595,-7.4667,-7.4712,-7.4786,-7.4853,-7.4943,-7.4986,-7.509,-7.5147,-7.5227,-7.5245,-7.5176,-7.5428,-7.5336,-7.5444,-7.5444,-7.5498,-7.5495,-7.58,-7.5535,-7.5534,-7.5534,-7.5533,0,-7.435,-7.4485,-7.4525,-7.462,-7.4771,-7.4784,-7.4932,-7.4972,-7.5039,-7.5141,-7.5122,-7.5217,-7.5235,-7.5334,-7.5349,-7.5498,-7.5523,-7.554,-7.5542,-7.5542,-7.554,-7.558,-7.5566,-7.5542,-7.554,-7.5538,-7.5537,0,-7.4559,-7.459,-7.4758,-7.484,-7.4863,-7.4971,-7.5041,-7.5132,-7.5161,-7.5291,-7.5321,-7.5367,-7.5483,-7.5509,-7.5646,-7.5656,-7.5834,-7.5821,-7.5808,-7.5807,-7.5914,-7.5904,-7.6255,-7.6302,-7.6006,-7.6008,-7.6011,0,-7.4706,-7.481,-7.4904,-7.4972,-7.5021,-7.5131,-7.5199,-7.5216,-7.5288,-7.5388,-7.5468,-7.5582,-7.5675,-7.5863,-7.5907,-7.6012,-7.6003,-7.6119,-7.6018,-7.6016,-7.6006,-7.6,-7.6011,-7.6138,-7.6141,-7.6144,-7.6146,0,-7.4965,-7.4977,-7.5077,-7.5185,-7.5268,-7.5353,-7.5433,-7.549,-7.5517,-7.5599,-7.572,-7.5792,-7.5934,-7.6048,-7.6155,-7.6199,-7.6178,-7.6177,-7.6208,-7.6209,-7.6198,-7.6206,-7.5861,-7.6169,-7.6167,-7.6165,-7.6164,-7.6163,-7.5149,-7.5241,-7.5322,-7.5435,-7.5498,-7.5575,-7.5665,-7.5707,-7.5808,-7.5926,-7.5929,-7.6061,-7.6139,-7.628,-7.6332,-7.6434,-7.6398,-7.6442,-7.6453,-7.6464,-7.6475,-7.6181,-7.6453,-7.6452,-7.6452,-7.6451,-7.6451,0,-7.5408,-7.5459,-7.5564,-7.5679,-7.5768,-7.5742,-7.583,-7.5907,-7.6023,-7.6099,-7.6192,-7.633,-7.6442,-7.6496,-7.6606,-7.6678,-7.6671,-7.6706,-7.6701,-7.6712,-7.65,-7.6463,-7.671,-7.671,-7.671,-7.671,-7.671,-7.671,-7.5553,-7.5708,-7.5729,-7.5915,-7.5965,-7.6095,-7.6148,-7.6219,-7.628,-7.6436,-7.653,-7.6565,-7.6632,-7.6747,-7.6848,-7.6861,-7.6903,-7.6944,-7.6952,-7.6753,-7.6726,-7.6701,-7.6667,-7.6952,-7.6953,-7.7155,-7.7157,-7.7159]}]]